Whiting Fld NAS, FL

11:33 AM CDT on May 26, 2018 (GMT -0500)
Whiting Field Naval Air Station (North)

Weather History for KNSE - April, 2014

Change the Weather History Date:

Monday, April 7, 2014

  Actual Average Record
Temperature  
Mean Temperature 68 °F -  
Max Temperature 75 °F 73 °F 84 °F (2015)
Min Temperature 59 °F 54 °F 37 °F (2009)
Cooling Degree Days 4    
Growing Degree Days 18 (Base 50)    
Moisture  
Dew Point 65 °F    
Average Humidity 86    
Maximum Humidity 94    
Minimum Humidity 66    
Precipitation  
Precipitation 1.92 in - - ()
Sea Level Pressure  
Sea Level Pressure 29.71 in    
Wind  
Wind Speed 17 mph (SSW)    
Max Wind Speed 31 mph    
Max Gust Speed 41 mph    
Visibility 5 miles    
Events Fog , Rain , Thunderstorm    
Averages and records for this station are not official NWS values.
T = Trace of Precipitation, MM = Missing Value Source: NWS Daily Summary

Daily Weather History Graph

Daily Weather History Graph

Search for Another Location

Airport or City:

Astronomy

Apr. 07, 2014 Rise Set
Actual Time 6:29 AM CDT 7:10 PM CDT
Civil Twilight 6:05 AM CDT 7:35 PM CDT
Nautical Twilight 5:36 AM CDT 8:04 PM CDT
Astronomical Twilight 5:07 AM CDT 8:33 PM CDT
Moon 12:35 PM CDT (4/7) 1:37 AM CDT (4/7)
Length of Visible Light 13h 30m
Length of Day
12h 41m
First Quarter, 53% of the Moon is Illuminated
Apr 7
First Quarter
Apr 15
Full
Apr 22
Last Quarter
Apr 29
New
May 6
First Quarter

Hourly Weather History & Observations

Time (CDT) Temp. Dew Point Humidity Pressure Visibility Wind Dir Wind Speed Gust Speed Precip Events Conditions
12:56 AM 72.0 °F 69.1 °F 91% 29.73 in 6.0 mi SSE 18.4 mph 27.6 mph N/A   Overcast
1:56 AM 72.0 °F 69.1 °F 91% 29.71 in 6.0 mi South 18.4 mph 27.6 mph N/A   Overcast
2:56 AM 72.0 °F 69.1 °F 91% 29.72 in 6.0 mi South 17.3 mph 25.3 mph N/A   Overcast
3:56 AM 72.0 °F 69.1 °F 91% 29.68 in 5.0 mi South 18.4 mph 28.8 mph N/A   Overcast
4:56 AM 72.0 °F 69.1 °F 91% 29.66 in 4.0 mi South 20.7 mph 28.8 mph N/A   Overcast
5:52 AM 71.6 °F 69.8 °F 94% 29.70 in 4.0 mi South 21.9 mph 27.6 mph N/A   Overcast
5:56 AM 72.0 °F 69.1 °F 91% 29.67 in 4.0 mi South 25.3 mph 32.2 mph N/A   Overcast
6:31 AM 72.0 °F 69.1 °F 91% 29.69 in 2.5 mi South 21.9 mph 36.8 mph 0.00 in   Overcast
6:43 AM 72.0 °F 69.1 °F 91% 29.70 in 3.0 mi South 21.9 mph 33.4 mph 0.00 in   Overcast
6:47 AM 72.0 °F 69.1 °F 91% 29.70 in 1.0 mi South 20.7 mph 32.2 mph 0.00 in   Overcast
6:56 AM 72.0 °F 69.1 °F 91% 29.66 in 1.0 mi South 20.7 mph 32.2 mph 0.00 in   Overcast
7:00 AM 72.0 °F 69.1 °F 91% 29.70 in 2.0 mi South 20.7 mph 33.4 mph N/A   Overcast
7:32 AM 72.0 °F 69.1 °F 91% 29.70 in 2.5 mi South 21.9 mph 31.1 mph 0.00 in   Overcast
7:44 AM 72.0 °F 69.1 °F 91% 29.70 in 3.0 mi South 20.7 mph 29.9 mph 0.00 in Rain , Thunderstorm Light Thunderstorms and Rain
7:56 AM 72.0 °F 69.1 °F 91% 29.68 in 3.0 mi South 18.4 mph 29.9 mph 0.00 in Rain , Thunderstorm Light Thunderstorms and Rain
8:14 AM 72.0 °F 69.1 °F 91% 29.76 in 1.0 mi SW 19.6 mph 25.3 mph 0.03 in Rain , Thunderstorm Thunderstorms and Rain
8:18 AM 72.0 °F 69.1 °F 91% 29.77 in 1.5 mi West 31.1 mph 41.4 mph 0.16 in Rain , Thunderstorm Heavy Thunderstorms and Rain
8:21 AM 69.1 °F 66.0 °F 90% 29.79 in 0.5 mi WSW 28.8 mph 41.4 mph 0.43 in Fog , Rain , Thunderstorm Heavy Thunderstorms and Rain
8:56 AM 66.0 °F 64.0 °F 93% 29.73 in 0.5 mi SSW 16.1 mph - 1.73 in Fog , Rain , Thunderstorm Heavy Thunderstorms and Rain
9:05 AM 66.0 °F 64.0 °F 93% 29.77 in 2.0 mi SSW 11.5 mph 23.0 mph 0.02 in Rain , Thunderstorm Thunderstorms and Rain
9:17 AM 66.0 °F 64.0 °F 93% 29.75 in 3.0 mi South 10.4 mph - 0.03 in Rain , Thunderstorm Thunderstorms and Rain
9:50 AM 66.2 °F 64.4 °F 94% 29.74 in 2.5 mi SSW 8.1 mph - 0.08 in Rain , Thunderstorm Thunderstorms and Rain
9:56 AM 66.9 °F 64.0 °F 90% 29.70 in 3.0 mi SSW 6.9 mph - 0.09 in Rain , Thunderstorm Thunderstorms and Rain
10:56 AM 66.9 °F 64.9 °F 93% 29.70 in 7.0 mi South 9.2 mph - 0.10 in Rain , Thunderstorm Light Thunderstorms and Rain
11:03 AM 66.9 °F 64.9 °F 93% 29.74 in 7.0 mi South 10.4 mph - 0.00 in Rain Light Rain
11:34 AM 69.1 °F 66.0 °F 90% 29.72 in 7.0 mi SSE 13.8 mph - 0.00 in   Overcast
11:56 AM 69.1 °F 66.9 °F 93% 29.66 in 6.0 mi SSE 12.7 mph - 0.00 in   Overcast
12:56 PM 70.0 °F 66.9 °F 90% 29.68 in 6.0 mi South 8.1 mph - N/A   Overcast
1:56 PM 71.1 °F 66.9 °F 87% 29.67 in 6.0 mi South 10.4 mph - N/A   Overcast
2:56 PM 73.9 °F 68.0 °F 82% 29.65 in 7.0 mi South 10.4 mph - N/A   Overcast
3:31 PM 75.0 °F 66.9 °F 76% 29.67 in 7.0 mi WSW 6.9 mph - N/A   Mostly Cloudy
3:56 PM 75.9 °F 66.9 °F 74% 29.63 in 7.0 mi SW 9.2 mph - N/A   Mostly Cloudy
4:18 PM 75.0 °F 68.0 °F 79% 29.68 in 8.0 mi SSW 9.2 mph - N/A   Mostly Cloudy
4:56 PM 73.9 °F 66.9 °F 79% 29.65 in 9.0 mi South 9.2 mph - N/A   Mostly Cloudy
5:56 PM 73.0 °F 66.9 °F 81% 29.65 in 8.0 mi Calm Calm - N/A   Mostly Cloudy
6:56 PM 71.1 °F 64.0 °F 78% 29.68 in 9.0 mi West 6.9 mph - N/A   Mostly Cloudy
7:56 PM 68.0 °F 57.9 °F 70% 29.73 in 10.0 mi WNW 8.1 mph - N/A   Mostly Cloudy
8:56 PM 66.9 °F 55.0 °F 66% 29.76 in 10.0 mi NNW 8.1 mph - N/A   Mostly Cloudy
9:56 PM 64.0 °F 54.0 °F 70% 29.78 in 10.0 mi NW 6.9 mph - N/A   Mostly Cloudy
10:45 PM 62.1 °F 52.0 °F 70% 29.82 in 10.0 mi Variable 5.8 mph - N/A   Mostly Cloudy
10:56 PM 62.1 °F 51.1 °F 67% 29.79 in 10.0 mi NNW 12.7 mph 18.4 mph N/A   Mostly Cloudy
11:56 PM 59.0 °F 50.0 °F 72% 29.81 in 10.0 mi NNW 10.4 mph 20.7 mph N/A   Clear